Location: Lake Lucerne
(45.5315°N, 88.8489°W)
Time: 17:35:10
(UTC-05:00)

Tiangong 2 - Visible Passes

Search period start: 24 June 2017 00:00
Search period end: 04 July 2017 00:00
Orbit: 391 x 396 km, 42.8° (Epoch: 23 June)

Date Brightness Start Highest point End Pass type
(mag) Time Alt. Az. Time Alt. Az. Time Alt. Az.
30 Jun 3.4 03:48:53 11° S 03:50:13 13° SSE 03:51:51 10° ESE visible
01 Jul 2.3 04:27:11 10° SW 04:30:01 29° SSE 04:32:53 10° E visible
02 Jul 2.7 03:32:40 19° S 03:33:27 21° SSE 03:35:59 10° ESE visible
03 Jul 3.7 02:38:19 12° ESE 02:38:19 12° ESE 02:38:50 10° ESE visible
03 Jul 1.7 04:10:42 13° WSW 04:13:22 40° SSE 04:16:25 10° E visible
